Location: Roland
(31.1349°N, 85.4372°W)
Time: 23:12:37
(UTC+00:00)

A-11 Canister half - Visible Passes

Search period start: 18 April 2021 00:00
Search period end: 28 April 2021 00:00
Orbit: 1525 x 1683 km, 47.3° (Epoch: 18 April)

Date Brightness Start Highest point End Pass type
(mag) Time Alt. Az. Time Alt. Az. Time Alt. Az.
18 Apr 10.4 00:28:08 10° WNW 00:36:52 31° N 00:45:34 10° ENE visible
18 Apr 9.7 02:34:44 10° NW 02:44:26 47° NNE 02:47:52 36° ENE visible
18 Apr 9.9 04:40:04 10° NW 04:46:09 42° WNW 04:46:09 42° WNW visible
19 Apr 9.7 02:13:01 10° NW 02:22:39 45° NNE 02:27:16 30° ENE visible
19 Apr 9.6 04:18:20 10° NW 04:25:33 52° WNW 04:25:33 52° WNW visible
20 Apr 9.8 01:51:18 10° NW 02:00:54 44° NNE 02:06:42 24° E visible
20 Apr 9.3 03:56:37 10° NW 04:04:59 64° WNW 04:04:59 64° WNW visible
21 Apr 9.8 01:29:35 10° NW 01:39:07 43° NNE 01:46:09 18° E visible
21 Apr 9.0 03:34:53 10° NW 03:44:26 77° W 03:44:26 77° W visible
21 Apr 11.1 05:42:26 10° W 05:42:43 11° W 05:42:43 11° W visible
22 Apr 9.9 01:07:51 10° NW 01:17:20 41° NNE 01:25:37 14° E visible
22 Apr 8.9 03:13:10 10° NW 03:23:22 84° SW 03:23:55 80° S visible
22 Apr 10.9 05:20:26 10° W 05:22:13 14° W 05:22:13 14° W visible
23 Apr 10.0 00:46:08 10° NW 00:55:33 40° NNE 01:04:51 10° E visible
23 Apr 8.9 02:51:28 10° NW 03:01:41 87° SW 03:03:26 67° SE visible
23 Apr 10.7 04:58:28 10° WNW 05:01:44 18° W 05:01:44 18° W visible
24 Apr 10.0 00:24:25 10° NW 00:33:46 39° NNE 00:43:01 10° E visible
24 Apr 9.0 02:29:45 10° NW 02:39:59 89° NE 02:43:00 53° SE visible
24 Apr 10.5 04:36:33 10° WNW 04:41:18 22° W 04:41:18 22° W visible
25 Apr 9.1 02:08:02 10° NW 02:18:17 86° NE 02:22:35 41° SE visible
25 Apr 10.3 04:14:39 10° WNW 04:20:54 26° WSW 04:20:54 26° WSW visible
26 Apr 9.1 01:46:21 10° NW 01:56:35 82° NE 02:02:14 31° ESE visible
26 Apr 10.1 03:52:46 10° WNW 04:00:33 29° WSW 04:00:33 29° WSW visible
27 Apr 9.2 01:24:39 10° NW 01:34:53 79° NE 01:41:55 23° ESE visible
27 Apr 10.0 03:30:54 10° WNW 03:39:22 31° SW 03:40:14 31° SW visible
